Owosso, MI

11:21 PM EST on February 24, 2018 (GMT -0500)
Owosso

Weather History for KRNP - April, 2013

Change the Weather History Date:

Friday, April 5, 2013

  Actual Average (KFNT) Record (KFNT)
Temperature  
Mean Temperature 39 °F -  
Max Temperature 47 °F 49 °F 80 °F (1921)
Min Temperature 31 °F 31 °F 13 °F (1995)
Degree Days  
Heating Degree Days 26    
Moisture  
Dew Point 17 °F    
Average Humidity 43    
Maximum Humidity 79    
Minimum Humidity 22    
Precipitation  
Precipitation 0.00 in - - ()
Sea Level Pressure  
Sea Level Pressure 30.10 in    
Wind  
Wind Speed 5 mph (NNW)    
Max Wind Speed 16 mph    
Max Gust Speed 20 mph    
Visibility 10 miles    
Events      
Averages and records for this station are not official NWS values.
T = Trace of Precipitation, MM = Missing Value Source: NWS Daily Summary

Daily Weather History Graph

Daily Weather History Graph

Search for Another Location

Airport or City:

Trip Planner

Search our weather history database for the weather conditions in past years. The results will help you decide how hot, cold, wet, or windy it might be!

Date:

Astronomy

Apr. 05, 2013 Rise Set
Actual Time 7:11 AM EDT 8:07 PM EDT
Civil Twilight 6:42 AM EDT 8:36 PM EDT
Nautical Twilight 6:08 AM EDT 9:11 PM EDT
Astronomical Twilight 5:32 AM EDT 9:47 PM EDT
Moon 4:24 AM EDT (4/5) 3:24 PM EDT (4/5)
Length of Visible Light 13h 54m
Length of Day
12h 56m
Waning Crescent, 24% of the Moon is Illuminated
Apr 5
Waning Crescent
Apr 10
New
Apr 18
First Quarter
Apr 25
Full
May 2
Last Quarter

Hourly Weather History & Observations

Time (EDT) Temp. Windchill Dew Point Humidity Pressure Visibility Wind Dir Wind Speed Gust Speed Precip Events Conditions
12:15 AM 39.6 °F - 18.5 °F 43% 29.94 in 10.0 mi Calm Calm - N/A   Mostly Cloudy
12:34 AM 41.0 °F - 18.0 °F 40% 29.94 in 10.0 mi Calm Calm - N/A   Overcast
12:55 AM 40.5 °F - 18.5 °F 41% 29.94 in 10.0 mi Calm Calm - N/A   Mostly Cloudy
1:15 AM 40.1 °F - 18.7 °F 42% 29.94 in 10.0 mi Calm Calm - N/A   Mostly Cloudy
1:34 AM 38.1 °F - 18.9 °F 46% 29.94 in 10.0 mi Calm Calm - N/A   Scattered Clouds
1:55 AM 40.5 °F 37.3 °F 20.5 °F 45% 29.96 in 10.0 mi NNW 4.6 mph - N/A   Scattered Clouds
2:14 AM 41.2 °F 38.2 °F 22.3 °F 47% 29.96 in 10.0 mi North 4.6 mph - N/A   Scattered Clouds
2:34 AM 40.1 °F 36.9 °F 23.7 °F 52% 29.96 in 10.0 mi North 4.6 mph - N/A   Scattered Clouds
2:55 AM 39.2 °F 34.2 °F 25.5 °F 58% 29.97 in 10.0 mi North 6.9 mph - N/A   Clear
3:14 AM 38.3 °F 33.9 °F 27.9 °F 66% 29.98 in 10.0 mi North 5.8 mph - N/A   Clear
3:35 AM 37.4 °F 32.8 °F 28.6 °F 70% 29.98 in 10.0 mi North 5.8 mph - N/A   Clear
3:55 AM 36.5 °F 31.8 °F 29.1 °F 75% 29.99 in 10.0 mi North 5.8 mph - N/A   Clear
4:14 AM 35.6 °F 30.7 °F 29.1 °F 77% 30.00 in 10.0 mi North 5.8 mph - N/A   Clear
4:35 AM 35.1 °F 30.1 °F 28.4 °F 77% 30.01 in 10.0 mi North 5.8 mph - N/A   Clear
4:55 AM 34.7 °F 29.6 °F 28.4 °F 78% 30.02 in 10.0 mi North 5.8 mph - N/A   Clear
5:14 AM 34.5 °F 30.4 °F 28.6 °F 79% 30.03 in 10.0 mi North 4.6 mph - N/A   Scattered Clouds
5:35 AM 34.7 °F 29.6 °F 28.6 °F 78% 30.04 in 10.0 mi North 5.8 mph - N/A   Overcast
5:55 AM 34.2 °F 31.2 °F 28.0 °F 78% 30.05 in 10.0 mi North 3.5 mph - N/A   Overcast
6:14 AM 34.0 °F 31.0 °F 27.7 °F 78% 30.06 in 10.0 mi North 3.5 mph - N/A   Overcast
6:35 AM 34.7 °F 29.6 °F 26.8 °F 73% 30.07 in 10.0 mi North 5.8 mph - N/A   Overcast
6:54 AM 34.9 °F 32.0 °F 26.2 °F 71% 30.08 in 10.0 mi NNW 3.5 mph - N/A   Overcast
7:14 AM 34.7 °F 30.6 °F 25.0 °F 68% 30.09 in 10.0 mi North 4.6 mph - N/A   Overcast
7:34 AM 33.3 °F 30.2 °F 24.4 °F 70% 30.09 in 10.0 mi NW 3.5 mph - N/A   Scattered Clouds
8:15 AM 34.7 °F 28.1 °F 23.4 °F 63% 30.11 in 10.0 mi NW 8.1 mph - N/A   Scattered Clouds
8:34 AM 35.8 °F 30.1 °F 23.4 °F 61% 30.12 in 10.0 mi NNW 6.9 mph - N/A   Scattered Clouds
8:55 AM 36.5 °F 29.2 °F 20.7 °F 53% 30.13 in 10.0 mi NNW 10.4 mph - N/A   Clear
9:14 AM 36.7 °F 29.9 °F 19.2 °F 49% 30.13 in 10.0 mi NNW 9.2 mph 17.3 mph N/A   Clear
9:34 AM 36.9 °F 29.6 °F 17.6 °F 46% 30.13 in 10.0 mi NNW 10.4 mph 16.1 mph N/A   Clear
9:55 AM 37.6 °F 30.5 °F 16.9 °F 43% 30.14 in 10.0 mi NNW 10.4 mph 16.1 mph N/A   Clear
10:14 AM 37.9 °F 30.5 °F 15.8 °F 41% 30.14 in 10.0 mi NNW 11.5 mph 16.1 mph N/A   Clear
10:35 AM 38.5 °F 33.4 °F 16.0 °F 40% 30.14 in 10.0 mi NNW 6.9 mph 16.1 mph N/A   Clear
10:55 AM 39.6 °F 33.5 °F 16.0 °F 38% 30.15 in 10.0 mi North 9.2 mph - N/A   Clear
11:14 AM 40.5 °F 34.6 °F 15.1 °F 36% 30.15 in 10.0 mi NNW 9.2 mph - N/A   Clear
11:35 AM 40.8 °F 35.0 °F 13.6 °F 33% 30.16 in 10.0 mi North 9.2 mph 19.6 mph N/A   Clear
11:55 AM 41.4 °F 35.2 °F 11.5 °F 30% 30.16 in 10.0 mi North 10.4 mph - N/A   Clear
12:14 PM 41.2 °F 34.5 °F 12.7 °F 31% 30.15 in 10.0 mi North 11.5 mph - N/A   Clear
12:35 PM 42.6 °F 36.3 °F 13.1 °F 30% 30.16 in 10.0 mi North 11.5 mph 18.4 mph N/A   Clear
12:54 PM 42.4 °F 37.0 °F 12.6 °F 30% 30.16 in 10.0 mi NNW 9.2 mph - N/A   Clear
1:15 PM 43.7 °F 38.1 °F 13.1 °F 29% 30.16 in 10.0 mi NNW 10.4 mph 17.3 mph N/A   Clear
1:35 PM 43.9 °F 39.9 °F 12.6 °F 28% 30.15 in 10.0 mi NNW 6.9 mph 17.3 mph N/A   Clear
1:54 PM 44.8 °F 37.7 °F 11.8 °F 26% 30.15 in 10.0 mi NW 16.1 mph - N/A   Clear
2:15 PM 45.3 °F 41.1 °F 12.2 °F 26% 30.14 in 10.0 mi North 8.1 mph 16.1 mph N/A   Clear
2:34 PM 46.0 °F 41.9 °F 10.8 °F 24% 30.14 in 10.0 mi NW 8.1 mph - N/A   Clear
2:54 PM 45.1 °F 40.3 °F 10.9 °F 25% 30.14 in 10.0 mi NW 9.2 mph - N/A   Clear
3:15 PM 46.0 °F 43.9 °F 10.6 °F 24% 30.13 in 10.0 mi NW 4.6 mph - N/A   Clear
3:34 PM 45.7 °F 41.5 °F 12.6 °F 26% 30.12 in 10.0 mi NNW 8.1 mph - N/A   Clear
3:54 PM 47.3 °F - 12.4 °F 25% 30.12 in 10.0 mi West 6.9 mph - N/A   Clear
4:15 PM 45.9 °F 41.7 °F 10.9 °F 24% 30.11 in 10.0 mi North 8.1 mph - N/A   Clear
4:34 PM 46.9 °F - 12.0 °F 24% 30.11 in 10.0 mi North 6.9 mph - N/A   Clear
4:55 PM 47.7 °F - 9.7 °F 22% 30.11 in 10.0 mi WNW 9.2 mph - N/A   Clear
5:15 PM 46.4 °F 45.2 °F 10.2 °F 23% 30.11 in 10.0 mi NNW 3.5 mph - N/A   Clear
5:34 PM 46.8 °F - 10.0 °F 23% 30.11 in 10.0 mi NNW 3.5 mph - N/A   Clear
5:55 PM 47.3 °F - 9.5 °F 22% 30.12 in 10.0 mi West 9.2 mph - N/A   Clear
6:15 PM 46.6 °F - 9.9 °F 23% 30.12 in 10.0 mi North 5.8 mph - N/A   Clear
6:32 PM 46.2 °F 42.7 °F 10.2 °F 23% 30.13 in 10.0 mi NNW 6.9 mph - N/A   Clear
6:55 PM 45.1 °F 40.8 °F 10.6 °F 25% 30.14 in 10.0 mi NW 8.1 mph - N/A   Clear
7:14 PM 44.6 °F 40.2 °F 9.7 °F 24% 30.14 in 10.0 mi WNW 8.1 mph - N/A   Clear
7:35 PM 44.4 °F 40.5 °F 9.7 °F 24% 30.14 in 10.0 mi NW 6.9 mph - N/A   Clear
7:55 PM 43.9 °F 41.3 °F 9.5 °F 25% 30.15 in 10.0 mi WNW 4.6 mph - N/A   Clear
8:14 PM 42.8 °F 39.3 °F 10.6 °F 27% 30.15 in 10.0 mi NW 5.8 mph - N/A   Clear
8:35 PM 41.5 °F 39.6 °F 11.3 °F 29% 30.16 in 10.0 mi NW 3.5 mph - N/A   Clear
8:55 PM 41.0 °F 39.0 °F 12.4 °F 31% 30.16 in 10.0 mi NNW 3.5 mph - N/A   Clear
9:14 PM 40.3 °F - 12.7 °F 33% 30.17 in 10.0 mi Calm Calm - N/A   Clear
9:35 PM 36.5 °F 33.9 °F 14.5 °F 41% 30.17 in 10.0 mi NNE 3.5 mph - N/A   Clear
9:54 PM 38.3 °F - 14.2 °F 37% 30.18 in 10.0 mi Calm Calm - N/A   Clear
10:15 PM 38.3 °F - 14.9 °F 39% 30.18 in 10.0 mi Calm Calm - N/A   Clear
10:35 PM 36.9 °F - 15.4 °F 42% 30.19 in 10.0 mi Calm Calm - N/A   Clear
10:54 PM 36.1 °F - 15.8 °F 44% 30.19 in 10.0 mi Calm Calm - N/A   Clear
11:15 PM 31.3 °F - 17.8 °F 57% 30.19 in 10.0 mi Calm Calm - N/A   Clear
11:34 PM 34.2 °F - 16.3 °F 48% 30.19 in 10.0 mi Calm Calm - N/A   Clear
11:54 PM 32.0 °F - 18.0 °F 56% 30.19 in 10.0 mi Calm Calm - N/A   Clear